Weather History for Roanoke, VA

Change the Weather History Date:

Saturday, February 2, 2013

  Actual Average Record
Temperature  
Mean Temperature 26 °F 37 °F  
Max Temperature 36 °F 47 °F 76 °F (1989)
Min Temperature 16 °F 28 °F 9 °F (1971)
Degree Days  
Heating Degree Days 39 28  
Month to date heating degree days 74 56  
Since 1 July heating degree days 2302 2548  
Cooling Degree Days 0 0  
Month to date cooling degree days 0 0  
Year to date cooling degree days 0 0  
Moisture  
Dew Point 16 °F    
Average Humidity 60    
Maximum Humidity 85    
Minimum Humidity 35    
Precipitation  
Precipitation 0.03 in 0.11 in 1.40 in (1983)
Month to date precipitation 0.03 0.21  
Year to date precipitation 7.24 3.13  
Snow  
Snow 0.40 in - - ()
Month to date snowfall 0.4  
Since 1 July snowfall 5.7  
Snow Depth T in    
Sea Level Pressure  
Sea Level Pressure 30.20 in    
Wind  
Wind Speed 2 mph (SSW)    
Max Wind Speed 12 mph    
Max Gust Speed 14 mph    
Visibility 8 miles    
Events Snow    
T = Trace of Precipitation, MM = Missing Value Source: NWS Daily Summary

Daily Weather History Graph

Daily Weather History Graph

Search for Another Location

Airport:

Trip Planner

Search our weather history database for the weather conditions in past years. The results will help you decide how hot, cold, wet, or windy it might be!

Date:

Astronomy

Feb. 02, 2013 Rise Set
Actual Time 7:21 AM EST 5:45 PM EST
Civil Twilight 6:54 AM EST 6:13 PM EST
Nautical Twilight 6:23 AM EST 6:44 PM EST
Astronomical Twilight 5:52 AM EST 7:14 PM EST
Moon No Moon Rise 10:41 AM EST (2/2)
Length of Visible Light 11h 18m
Length of Day
10h 23m
Waning Gibbous, 60% of the Moon is Illuminated
Feb 2
Waning Gibbous
Feb 3
Last Quarter
Feb 10
New
Feb 17
First Quarter
Feb 25
Full

Hourly Weather History & Observations

Time (EST) Temp. Windchill Dew Point Humidity Pressure Visibility Wind Dir Wind Speed Gust Speed Precip Events Conditions
12:54 AM 19.0 °F - 3.9 °F 52% 30.39 in 10.0 mi Calm Calm - N/A   Clear
1:54 AM 19.0 °F - 3.9 °F 52% 30.39 in 10.0 mi Calm Calm - N/A   Clear
2:54 AM 19.0 °F - 5.0 °F 54% 30.38 in 10.0 mi Calm Calm - N/A   Clear
3:54 AM 18.0 °F 12.7 °F 7.0 °F 62% 30.37 in 10.0 mi NNE 3.5 mph - N/A   Clear
4:54 AM 19.0 °F - 6.1 °F 57% 30.36 in 10.0 mi Calm Calm - N/A   Clear
5:54 AM 19.0 °F - 6.1 °F 57% 30.36 in 10.0 mi Calm Calm - N/A   Clear
6:54 AM 18.0 °F - 7.0 °F 62% 30.36 in 10.0 mi Calm Calm - N/A   Clear
7:54 AM 18.0 °F - 8.1 °F 65% 30.37 in 10.0 mi Calm Calm - N/A   Clear
8:54 AM 21.0 °F - 10.9 °F 65% 30.37 in 10.0 mi Calm Calm - N/A   Clear
9:54 AM 24.1 °F 19.7 °F 9.0 °F 53% 30.34 in 10.0 mi SE 3.5 mph - N/A   Clear
10:54 AM 27.0 °F 23.0 °F 9.0 °F 47% 30.31 in 10.0 mi ESE 3.5 mph - N/A   Scattered Clouds
11:54 AM 30.0 °F - 10.0 °F 43% 30.25 in 10.0 mi Calm Calm - N/A   Partly Cloudy
12:54 PM 33.1 °F - 10.0 °F 38% 30.21 in 10.0 mi Calm Calm - N/A   Overcast
1:54 PM 35.1 °F - 10.9 °F 37% 30.17 in 10.0 mi Calm Calm - N/A   Overcast
2:54 PM 33.1 °F - 18.0 °F 54% 30.14 in 5.0 mi Calm Calm - 0.00 in Snow Light Snow
3:50 PM 32.0 °F 23.6 °F 24.8 °F 75% 30.08 in 4.0 mi SSE 10.4 mph - 0.00 in Snow Light Snow
3:54 PM 32.0 °F 23.6 °F 24.1 °F 73% 30.12 in 4.0 mi SSE 10.4 mph - 0.00 in Snow Light Snow
4:22 PM 32.0 °F 27.5 °F 23.0 °F 69% 30.08 in 10.0 mi SSE 4.6 mph - 0.00 in   Overcast
4:54 PM 32.0 °F - 21.9 °F 66% 30.11 in 10.0 mi Calm Calm - 0.00 in   Mostly Cloudy
5:54 PM 30.9 °F 27.5 °F 23.0 °F 72% 30.10 in 10.0 mi NNW 3.5 mph - N/A   Overcast
6:27 PM 30.2 °F - 24.8 °F 80% 30.07 in 2.5 mi Calm Calm - 0.00 in Snow Light Snow
6:54 PM 30.0 °F - 26.1 °F 85% 30.11 in 3.0 mi Calm Calm - 0.01 in Snow Light Snow
7:51 PM 30.2 °F - 26.6 °F 86% 30.05 in 3.0 mi Calm Calm - N/A Snow Light Snow
7:54 PM 30.0 °F - 27.0 °F 88% 30.09 in 3.0 mi Calm Calm - 0.01 in Snow Light Snow
8:06 PM 30.2 °F - 26.6 °F 86% 30.05 in 4.0 mi Calm Calm - 0.01 in Snow Light Snow
8:46 PM 30.2 °F 26.7 °F 26.6 °F 86% 30.04 in 4.0 mi SW 3.5 mph - 0.01 in Snow Light Snow
8:54 PM 30.9 °F 27.5 °F 27.0 °F 85% 30.08 in 4.0 mi SW 3.5 mph - 0.01 in Snow Light Snow
9:54 PM 30.9 °F 25.2 °F 26.1 °F 82% 30.07 in 9.0 mi WSW 5.8 mph - 0.00 in Snow Light Snow
10:54 PM 32.0 °F 25.6 °F 27.0 °F 82% 30.05 in 10.0 mi WSW 6.9 mph - 0.00 in   Overcast
11:54 PM 32.0 °F 24.8 °F 27.0 °F 82% 30.03 in 10.0 mi WSW 8.1 mph - N/A   Partly Cloudy